RYR84KM EGGW-LEMI

Flight info

Callsign RYR84KM
Flight time 2h 27m
Altitude 35000
Route RODNI N27 ICTAM Q63 CPT UN859 SOPIL DCT BALAN DCT LMG DCT PIMQO DCT AGN DCT ANETO N860 VLC L34 ALT
Aircraft B738/M-SDE2E3FGHIRWXY/LB1

Departure

Time 2026-05-05 19:53
Airport London Luton Airport (EGGW)

Arrival

Time 2026-05-05 22:20
Airport Region of Murcia International Airport (LEMI)
Time Latitude Longitude Altitude Speed Heading
2026-05-05 19:26 51.87861 -0.37892 533 ft 0 kts 45°
2026-05-05 19:42 51.87860 -0.37892 533 ft 0 kts 45°
2026-05-05 19:45 51.87855 -0.37902 533 ft 4 kts 45°
2026-05-05 19:45 51.87838 -0.37928 533 ft 4 kts 52°
2026-05-05 19:45 51.87832 -0.37961 533 ft 4 kts 113°
2026-05-05 19:45 51.87848 -0.37990 533 ft 4 kts 154°
2026-05-05 19:46 51.87872 -0.38006 533 ft 3 kts 159°
2026-05-05 19:46 51.87874 -0.38007 533 ft 2 kts 159°
2026-05-05 19:48 51.87860 -0.37998 533 ft 5 kts 157°
2026-05-05 19:49 51.87817 -0.37949 533 ft 10 kts 134°
2026-05-05 19:49 51.87789 -0.37872 533 ft 14 kts 116°
2026-05-05 19:49 51.87729 -0.37664 533 ft 17 kts 114°
2026-05-05 19:49 51.87672 -0.37496 533 ft 18 kts 142°
2026-05-05 19:50 51.87571 -0.37452 535 ft 12 kts 184°
2026-05-05 19:50 51.87512 -0.37542 535 ft 12 kts 240°
2026-05-05 19:50 51.87482 -0.37674 535 ft 13 kts 252°
2026-05-05 19:50 51.87454 -0.37824 535 ft 15 kts 253°
2026-05-05 19:51 51.87432 -0.37961 535 ft 10 kts 255°
2026-05-05 19:51 51.87406 -0.38035 535 ft 7 kts 223°
2026-05-05 19:51 51.87358 -0.38077 533 ft 8 kts 206°
2026-05-05 19:51 51.87301 -0.38110 532 ft 8 kts 185°
2026-05-05 19:52 51.87257 -0.38081 532 ft 6 kts 123°
2026-05-05 19:52 51.87261 -0.38015 532 ft 9 kts 75°
2026-05-05 19:52 51.87318 -0.37682 536 ft 68 kts 74°
2026-05-05 19:52 51.87512 -0.36551 540 ft 141 kts 74°
2026-05-05 19:53 51.87810 -0.34803 1050 ft 163 kts 72°
2026-05-05 19:53 51.88140 -0.33106 2284 ft 156 kts 70°
2026-05-05 19:53 51.88475 -0.31286 2827 ft 184 kts 73°
2026-05-05 19:53 51.88847 -0.29143 3080 ft 211 kts 73°
2026-05-05 19:54 51.89205 -0.26732 3413 ft 231 kts 84°
2026-05-05 19:54 51.88761 -0.24116 3736 ft 258 kts 123°
2026-05-05 19:54 51.87350 -0.22266 3971 ft 269 kts 157°
2026-05-05 19:54 51.85503 -0.22022 4008 ft 273 kts 193°
2026-05-05 19:55 51.83876 -0.23536 4005 ft 274 kts 230°
2026-05-05 19:55 51.83075 -0.26260 4007 ft 270 kts 265°
2026-05-05 19:55 51.83053 -0.29272 4018 ft 268 kts 272°
2026-05-05 19:55 51.82951 -0.32289 4004 ft 270 kts 265°
2026-05-05 19:56 51.82653 -0.35285 3996 ft 271 kts 260°
2026-05-05 19:56 51.82240 -0.38258 4002 ft 271 kts 258°
2026-05-05 19:56 51.81782 -0.41205 3996 ft 271 kts 257°
2026-05-05 19:56 51.81309 -0.44153 4000 ft 271 kts 257°
2026-05-05 19:57 51.80850 -0.47139 4275 ft 276 kts 258°
2026-05-05 19:57 51.80544 -0.49173 4759 ft 275 kts 258°
2026-05-05 19:57 51.79938 -0.53177 4977 ft 277 kts 258°
2026-05-05 19:57 51.79482 -0.56175 4984 ft 273 kts 258°
2026-05-05 19:58 51.79031 -0.59133 4985 ft 270 kts 258°
2026-05-05 19:58 51.78581 -0.62070 4987 ft 270 kts 258°
2026-05-05 19:58 51.78131 -0.65015 4993 ft 270 kts 258°
2026-05-05 19:58 51.77679 -0.67967 4993 ft 271 kts 258°
2026-05-05 19:59 51.77223 -0.70929 4999 ft 272 kts 258°
2026-05-05 19:59 51.76766 -0.73894 4990 ft 272 kts 258°
2026-05-05 19:59 51.76309 -0.76855 5002 ft 272 kts 258°
2026-05-05 19:59 51.75572 -0.79654 4980 ft 275 kts 233°
2026-05-05 20:00 51.74261 -0.81887 5009 ft 275 kts 225°
2026-05-05 20:00 51.72898 -0.84059 4998 ft 275 kts 225°
2026-05-05 20:00 51.71538 -0.86234 4999 ft 276 kts 225°
2026-05-05 20:00 51.70163 -0.88432 5277 ft 281 kts 225°
2026-05-05 20:01 51.68781 -0.90645 6288 ft 277 kts 225°
2026-05-05 20:01 51.67420 -0.92829 7267 ft 277 kts 226°
2026-05-05 20:01 51.66042 -0.95040 8065 ft 282 kts 226°
2026-05-05 20:01 51.64644 -0.97279 8938 ft 285 kts 227°
2026-05-05 20:02 51.63231 -0.99541 9818 ft 288 kts 227°
2026-05-05 20:02 51.61797 -1.01836 10443 ft 299 kts 226°
2026-05-05 20:02 51.60262 -1.04294 10632 ft 324 kts 226°
2026-05-05 20:02 51.58614 -1.06927 11006 ft 340 kts 226°
2026-05-05 20:03 51.56915 -1.09635 11704 ft 346 kts 226°
2026-05-05 20:03 51.55203 -1.12361 12527 ft 348 kts 226°
2026-05-05 20:03 51.53481 -1.15099 13332 ft 350 kts 226°
2026-05-05 20:03 51.51698 -1.17797 14064 ft 355 kts 218°
2026-05-05 20:04 51.49473 -1.19552 14698 ft 362 kts 195°
2026-05-05 20:04 51.46956 -1.19845 15403 ft 367 kts 174°
2026-05-05 20:04 51.44501 -1.18710 16098 ft 371 kts 156°
2026-05-05 20:04 51.42187 -1.16967 16799 ft 373 kts 154°
2026-05-05 20:05 51.39834 -1.15163 17470 ft 377 kts 154°
2026-05-05 20:05 51.37458 -1.13366 18159 ft 379 kts 155°
2026-05-05 20:05 51.35054 -1.11585 18743 ft 383 kts 155°
2026-05-05 20:05 51.32614 -1.09795 19253 ft 388 kts 156°
2026-05-05 20:06 51.30089 -1.07949 19775 ft 393 kts 156°
2026-05-05 20:06 51.27642 -1.06161 20304 ft 396 kts 156°
2026-05-05 20:06 51.25128 -1.04325 20848 ft 400 kts 156°
2026-05-05 20:06 51.22588 -1.02472 21396 ft 403 kts 156°
2026-05-05 20:07 51.20021 -1.00603 21920 ft 407 kts 156°
2026-05-05 20:07 51.17436 -0.98723 22429 ft 411 kts 156°
2026-05-05 20:07 51.14826 -0.96826 22927 ft 414 kts 156°
2026-05-05 20:07 51.12191 -0.94913 23426 ft 418 kts 156°
2026-05-05 20:08 51.09539 -0.92990 23874 ft 420 kts 156°
2026-05-05 20:08 51.06872 -0.91057 24357 ft 421 kts 156°
2026-05-05 20:08 51.04205 -0.89127 24845 ft 422 kts 156°
2026-05-05 20:08 51.01534 -0.87197 24930 ft 422 kts 156°
2026-05-05 20:09 50.98863 -0.85269 24954 ft 422 kts 156°
2026-05-05 20:09 50.96185 -0.83339 24954 ft 423 kts 156°
2026-05-05 20:09 50.93505 -0.81409 24946 ft 423 kts 156°
2026-05-05 20:09 50.90830 -0.79484 24947 ft 422 kts 156°
2026-05-05 20:10 50.88156 -0.77564 24944 ft 422 kts 156°
2026-05-05 20:10 50.85490 -0.75617 24942 ft 422 kts 153°
2026-05-05 20:10 50.82951 -0.73281 24949 ft 422 kts 148°
2026-05-05 20:10 50.80478 -0.70761 24941 ft 423 kts 147°
2026-05-05 20:11 50.78023 -0.68203 24933 ft 423 kts 147°
2026-05-05 20:11 50.76398 -0.66506 24946 ft 423 kts 147°
2026-05-05 20:11 50.73938 -0.63952 24944 ft 423 kts 147°
2026-05-05 20:11 50.71470 -0.61411 24942 ft 423 kts 147°
2026-05-05 20:12 50.68999 -0.58886 24940 ft 424 kts 147°
2026-05-05 20:12 50.66519 -0.56368 24940 ft 424 kts 147°
2026-05-05 20:12 50.64039 -0.53857 24942 ft 424 kts 147°
2026-05-05 20:12 50.61555 -0.51350 24944 ft 424 kts 147°
2026-05-05 20:13 50.59067 -0.48843 24942 ft 424 kts 147°
2026-05-05 20:13 50.56585 -0.46343 24941 ft 424 kts 147°
2026-05-05 20:13 50.54102 -0.43847 24942 ft 424 kts 147°
2026-05-05 20:13 50.51616 -0.41350 24936 ft 424 kts 147°
2026-05-05 20:14 50.49132 -0.38858 24934 ft 424 kts 147°
2026-05-05 20:14 50.46645 -0.36366 24937 ft 424 kts 147°
2026-05-05 20:14 50.44160 -0.33879 24939 ft 424 kts 147°
2026-05-05 20:14 50.41672 -0.31392 24940 ft 424 kts 147°
2026-05-05 20:15 50.39218 -0.28942 24945 ft 424 kts 147°
2026-05-05 20:15 50.36702 -0.26434 24934 ft 423 kts 147°
2026-05-05 20:15 50.34218 -0.23961 24932 ft 423 kts 147°
2026-05-05 20:15 50.31768 -0.21523 24936 ft 423 kts 146°
2026-05-05 20:16 50.29254 -0.19027 24937 ft 422 kts 147°
2026-05-05 20:16 50.26806 -0.16598 24931 ft 422 kts 146°
2026-05-05 20:16 50.24331 -0.14146 24930 ft 422 kts 147°
2026-05-05 20:16 50.21853 -0.11694 24935 ft 421 kts 147°
2026-05-05 20:17 50.19378 -0.09246 24936 ft 421 kts 146°
2026-05-05 20:17 50.16901 -0.06799 24994 ft 424 kts 147°
2026-05-05 20:17 50.14405 -0.04337 25416 ft 425 kts 147°
2026-05-05 20:17 50.11911 -0.01889 25996 ft 423 kts 148°
2026-05-05 20:18 50.09289 0.00193 26468 ft 424 kts 157°
2026-05-05 20:18 50.06473 0.01582 26861 ft 427 kts 165°
2026-05-05 20:18 50.03576 0.02699 27269 ft 429 kts 165°
2026-05-05 20:18 50.00668 0.03785 27675 ft 431 kts 165°
2026-05-05 20:19 49.97756 0.04877 28090 ft 432 kts 165°
2026-05-05 20:19 49.94830 0.05993 28459 ft 434 kts 165°
2026-05-05 20:19 49.91898 0.07128 28812 ft 436 kts 165°
2026-05-05 20:19 49.88951 0.08279 29206 ft 437 kts 164°
2026-05-05 20:20 49.86010 0.09430 29660 ft 436 kts 164°
2026-05-05 20:20 49.83078 0.10579 30164 ft 433 kts 164°
2026-05-05 20:20 49.80163 0.11721 30603 ft 431 kts 164°
2026-05-05 20:20 49.77264 0.12853 31007 ft 429 kts 164°
2026-05-05 20:21 49.74370 0.13983 31388 ft 428 kts 164°
2026-05-05 20:21 49.71485 0.15106 31772 ft 427 kts 164°
2026-05-05 20:21 49.68604 0.16226 32168 ft 426 kts 164°
2026-05-05 20:21 49.65743 0.17356 32546 ft 424 kts 163°
2026-05-05 20:22 49.62888 0.18505 32919 ft 424 kts 163°
2026-05-05 20:22 49.60040 0.19659 33281 ft 423 kts 163°
2026-05-05 20:22 49.57198 0.20810 33654 ft 421 kts 163°
2026-05-05 20:22 49.54371 0.21951 34020 ft 420 kts 163°
2026-05-05 20:23 49.51582 0.23074 34258 ft 420 kts 164°
2026-05-05 20:23 49.48709 0.24228 34424 ft 423 kts 164°
2026-05-05 20:23 49.45899 0.25354 34625 ft 423 kts 164°
2026-05-05 20:23 49.43044 0.26496 34875 ft 423 kts 164°
2026-05-05 20:24 49.40182 0.27640 34898 ft 428 kts 164°
2026-05-05 20:24 49.34407 0.29944 34914 ft 428 kts 164°
2026-05-05 20:25 49.28682 0.32246 34903 ft 422 kts 163°
2026-05-05 20:25 49.23027 0.34635 34902 ft 422 kts 163°
2026-05-05 20:26 49.17362 0.37040 34901 ft 423 kts 163°
2026-05-05 20:26 49.11688 0.39431 34894 ft 424 kts 163°
2026-05-05 20:27 49.05995 0.41817 34898 ft 424 kts 163°
2026-05-05 20:27 49.00299 0.44198 34894 ft 425 kts 163°
2026-05-05 20:28 48.94588 0.46579 34889 ft 426 kts 163°
2026-05-05 20:28 48.88869 0.48958 34888 ft 426 kts 163°
2026-05-05 20:29 48.83146 0.51334 34888 ft 427 kts 163°
2026-05-05 20:29 48.77411 0.53697 34887 ft 427 kts 164°
2026-05-05 20:30 48.71657 0.55954 34876 ft 427 kts 165°
2026-05-05 20:30 48.65897 0.58192 34885 ft 427 kts 164°
2026-05-05 20:31 48.60132 0.60442 34883 ft 427 kts 164°
2026-05-05 20:31 48.54376 0.62688 34871 ft 428 kts 165°
2026-05-05 20:32 48.48660 0.64950 34880 ft 427 kts 164°
2026-05-05 20:32 48.42918 0.67298 34878 ft 427 kts 163°
2026-05-05 20:33 48.37139 0.69655 34874 ft 427 kts 164°
2026-05-05 20:33 48.31437 0.71967 34871 ft 427 kts 164°
2026-05-05 20:34 48.25661 0.74300 34868 ft 427 kts 164°
2026-05-05 20:34 48.19954 0.76565 34872 ft 427 kts 165°
2026-05-05 20:35 48.14205 0.78818 34875 ft 427 kts 165°
2026-05-05 20:35 48.08456 0.81069 34873 ft 427 kts 165°
2026-05-05 20:36 48.02711 0.83318 34867 ft 427 kts 165°
2026-05-05 20:36 47.96963 0.85565 34871 ft 427 kts 165°
2026-05-05 20:37 47.91217 0.87806 34866 ft 427 kts 165°
2026-05-05 20:37 47.85473 0.90041 34869 ft 427 kts 165°
2026-05-05 20:38 47.79726 0.92270 34872 ft 427 kts 165°
2026-05-05 20:38 47.73977 0.94494 34876 ft 427 kts 165°
2026-05-05 20:39 47.68224 0.96716 34877 ft 427 kts 165°
2026-05-05 20:39 47.62461 0.98937 34880 ft 428 kts 165°
2026-05-05 20:40 47.56689 1.01157 34883 ft 429 kts 165°
2026-05-05 20:40 47.50897 1.03380 34882 ft 430 kts 165°
2026-05-05 20:41 47.45092 1.05601 34885 ft 432 kts 166°
2026-05-05 20:41 47.39138 1.06522 34890 ft 432 kts 181°
2026-05-05 20:42 47.33129 1.06296 34881 ft 433 kts 181°
2026-05-05 20:42 47.27105 1.06083 34886 ft 433 kts 181°
2026-05-05 20:43 47.21081 1.05927 34882 ft 433 kts 181°
2026-05-05 20:43 47.15071 1.05789 34880 ft 432 kts 181°
2026-05-05 20:44 47.09070 1.05651 34882 ft 430 kts 181°
2026-05-05 20:44 47.03093 1.05512 34881 ft 429 kts 181°
2026-05-05 20:45 46.94213 1.05166 34880 ft 427 kts 182°
2026-05-05 20:45 46.88287 1.04895 34882 ft 425 kts 182°
2026-05-05 20:46 46.82377 1.04636 34883 ft 425 kts 182°
2026-05-05 20:46 46.76476 1.04385 34885 ft 424 kts 182°
2026-05-05 20:47 46.70573 1.04135 34888 ft 424 kts 182°
2026-05-05 20:47 46.64673 1.03885 34890 ft 424 kts 182°
2026-05-05 20:48 46.58767 1.03635 34892 ft 425 kts 182°
2026-05-05 20:48 46.52857 1.03386 34893 ft 425 kts 182°
2026-05-05 20:49 46.46938 1.03227 34894 ft 425 kts 181°
2026-05-05 20:49 46.41015 1.03186 34893 ft 426 kts 180°
2026-05-05 20:50 46.36093 1.03151 34895 ft 426 kts 181°
2026-05-05 20:50 46.29165 1.03083 34902 ft 426 kts 181°
2026-05-05 20:51 46.23242 1.03018 34900 ft 426 kts 181°
2026-05-05 20:51 46.17317 1.02951 34905 ft 425 kts 181°
2026-05-05 20:52 46.12370 1.02896 34915 ft 425 kts 181°
2026-05-05 20:52 46.06495 1.02832 34920 ft 425 kts 181°
2026-05-05 20:53 46.00627 1.02767 34933 ft 424 kts 181°
2026-05-05 20:53 45.94722 1.02702 34933 ft 424 kts 181°
2026-05-05 20:54 45.88822 1.02637 34935 ft 424 kts 181°
2026-05-05 20:54 45.82923 1.02576 34937 ft 424 kts 180°
2026-05-05 20:55 45.77077 1.03585 34940 ft 424 kts 171°
2026-05-05 20:55 45.71269 1.05151 34937 ft 424 kts 171°
2026-05-05 20:56 45.65466 1.06695 34931 ft 424 kts 171°
2026-05-05 20:56 45.59649 1.08201 34928 ft 425 kts 171°
2026-05-05 20:57 45.53831 1.09690 34927 ft 425 kts 171°
2026-05-05 20:57 45.48013 1.11174 34929 ft 425 kts 171°
2026-05-05 20:58 45.42193 1.12657 34924 ft 425 kts 171°
2026-05-05 20:58 45.36376 1.14136 34935 ft 425 kts 171°
2026-05-05 20:59 45.30557 1.15613 34937 ft 425 kts 171°
2026-05-05 20:59 45.25722 1.16838 34942 ft 424 kts 172°
2026-05-05 21:00 45.18963 1.18545 34932 ft 424 kts 172°
2026-05-05 21:00 45.13116 1.18713 34932 ft 420 kts 190°
2026-05-05 21:01 45.08303 1.17473 34941 ft 419 kts 192°
2026-05-05 21:01 45.02572 1.15933 34945 ft 419 kts 192°
2026-05-05 21:02 44.96878 1.14438 34941 ft 419 kts 192°
2026-05-05 21:02 44.91143 1.12963 34947 ft 419 kts 192°
2026-05-05 21:03 44.85413 1.11500 34941 ft 419 kts 192°
2026-05-05 21:03 44.79673 1.10040 34947 ft 419 kts 192°
2026-05-05 21:04 44.73939 1.08583 34944 ft 419 kts 192°
2026-05-05 21:04 44.68204 1.07129 34953 ft 419 kts 192°
2026-05-05 21:05 44.62472 1.05679 34952 ft 419 kts 192°
2026-05-05 21:05 44.56742 1.04231 34952 ft 418 kts 192°
2026-05-05 21:06 44.51010 1.02786 34961 ft 418 kts 192°
2026-05-05 21:06 44.45327 1.01357 34957 ft 418 kts 192°
2026-05-05 21:07 44.39606 0.99920 34961 ft 417 kts 192°
2026-05-05 21:07 44.33892 0.98489 34970 ft 417 kts 192°
2026-05-05 21:08 44.28184 0.97061 34964 ft 417 kts 192°
2026-05-05 21:08 44.22471 0.95635 34961 ft 417 kts 192°
2026-05-05 21:09 44.16761 0.94212 34968 ft 417 kts 192°
2026-05-05 21:09 44.11057 0.92794 34972 ft 416 kts 192°
2026-05-05 21:10 44.05352 0.91379 34965 ft 416 kts 192°
2026-05-05 21:10 43.99651 0.89967 34971 ft 416 kts 192°
2026-05-05 21:11 43.93952 0.88557 34972 ft 416 kts 193°
2026-05-05 21:11 43.88249 0.87149 34975 ft 416 kts 193°
2026-05-05 21:12 43.82568 0.85652 34977 ft 416 kts 194°
2026-05-05 21:12 43.76894 0.84115 34976 ft 416 kts 194°
2026-05-05 21:13 43.71216 0.82586 34983 ft 416 kts 194°
2026-05-05 21:13 43.65538 0.81069 34981 ft 415 kts 194°
2026-05-05 21:14 43.59863 0.79558 34986 ft 415 kts 194°
2026-05-05 21:14 43.54185 0.78051 34987 ft 415 kts 194°
2026-05-05 21:15 43.48509 0.76547 34992 ft 416 kts 194°
2026-05-05 21:15 43.42825 0.75043 34992 ft 416 kts 194°
2026-05-05 21:16 43.37144 0.73543 34989 ft 416 kts 194°
2026-05-05 21:16 43.31467 0.72047 34995 ft 415 kts 194°
2026-05-05 21:17 43.25794 0.70555 34997 ft 415 kts 194°
2026-05-05 21:17 43.20118 0.69065 35000 ft 415 kts 194°
2026-05-05 21:18 43.14488 0.67589 35003 ft 415 kts 194°
2026-05-05 21:18 43.08825 0.66108 35002 ft 414 kts 195°
2026-05-05 21:19 43.03162 0.64630 35001 ft 414 kts 195°
2026-05-05 21:19 42.97498 0.63154 35001 ft 414 kts 195°
2026-05-05 21:20 42.91846 0.61685 35014 ft 412 kts 195°
2026-05-05 21:20 42.86221 0.60224 35001 ft 412 kts 195°
2026-05-05 21:21 42.80591 0.58764 34990 ft 411 kts 195°
2026-05-05 21:21 42.74965 0.57308 34990 ft 412 kts 195°
2026-05-05 21:22 42.69325 0.55851 34986 ft 413 kts 195°
2026-05-05 21:22 42.63674 0.54397 34997 ft 414 kts 195°
2026-05-05 21:23 42.57991 0.52937 34970 ft 416 kts 195°
2026-05-05 21:23 42.52292 0.51475 34978 ft 417 kts 195°
2026-05-05 21:24 42.46589 0.50014 34965 ft 417 kts 195°
2026-05-05 21:24 42.40891 0.48558 34961 ft 416 kts 195°
2026-05-05 21:25 42.35206 0.47108 34955 ft 415 kts 195°
2026-05-05 21:25 42.29552 0.45668 34964 ft 413 kts 196°
2026-05-05 21:26 42.23914 0.44234 34965 ft 411 kts 196°
2026-05-05 21:26 42.18337 0.42817 34959 ft 410 kts 196°
2026-05-05 21:27 42.12744 0.41398 34962 ft 409 kts 196°
2026-05-05 21:27 42.07154 0.39983 34949 ft 408 kts 196°
2026-05-05 21:28 42.01584 0.38574 34962 ft 407 kts 197°
2026-05-05 21:28 41.96023 0.37172 34954 ft 407 kts 197°
2026-05-05 21:29 41.90460 0.35773 34963 ft 407 kts 197°
2026-05-05 21:29 41.84898 0.34376 34972 ft 407 kts 197°
2026-05-05 21:30 41.79332 0.32980 34960 ft 407 kts 197°
2026-05-05 21:30 41.73764 0.31587 34956 ft 407 kts 197°
2026-05-05 21:31 41.68198 0.30197 34959 ft 407 kts 197°
2026-05-05 21:31 41.62640 0.28812 34964 ft 406 kts 198°
2026-05-05 21:32 41.57088 0.27430 34962 ft 406 kts 198°
2026-05-05 21:32 41.51548 0.26053 34961 ft 404 kts 198°
2026-05-05 21:33 41.46011 0.24678 34955 ft 404 kts 198°
2026-05-05 21:33 41.40482 0.23308 34967 ft 404 kts 198°
2026-05-05 21:34 41.34958 0.21942 34962 ft 403 kts 198°
2026-05-05 21:34 41.29445 0.20581 34967 ft 402 kts 198°
2026-05-05 21:35 41.23982 0.19236 34963 ft 401 kts 198°
2026-05-05 21:35 41.18498 0.17887 34966 ft 400 kts 198°
2026-05-05 21:36 41.13034 0.16530 34968 ft 398 kts 200°
2026-05-05 21:36 41.07782 0.14494 34972 ft 392 kts 204°
2026-05-05 21:37 41.02572 0.12348 34984 ft 392 kts 204°
2026-05-05 21:37 40.97353 0.10229 34976 ft 392 kts 204°
2026-05-05 21:38 40.92130 0.08126 34986 ft 392 kts 204°
2026-05-05 21:38 40.86901 0.06026 34986 ft 393 kts 204°
2026-05-05 21:39 40.81674 0.03932 34992 ft 393 kts 204°
2026-05-05 21:39 40.76433 0.01834 34989 ft 394 kts 204°
2026-05-05 21:40 40.71185 -0.00262 34987 ft 394 kts 204°
2026-05-05 21:40 40.65935 -0.02356 34995 ft 394 kts 204°
2026-05-05 21:41 40.60678 -0.04451 34991 ft 395 kts 204°
2026-05-05 21:41 40.55414 -0.06544 34989 ft 395 kts 204°
2026-05-05 21:42 40.50178 -0.08622 34986 ft 396 kts 204°
2026-05-05 21:42 40.44904 -0.10711 34982 ft 396 kts 204°
2026-05-05 21:43 40.39602 -0.12809 34985 ft 395 kts 204°
2026-05-05 21:43 40.34377 -0.14874 34983 ft 394 kts 204°
2026-05-05 21:44 40.29136 -0.16942 34978 ft 393 kts 204°
2026-05-05 21:44 40.23898 -0.19005 34992 ft 392 kts 204°
2026-05-05 21:45 40.18680 -0.21055 34985 ft 391 kts 204°
2026-05-05 21:45 40.13465 -0.23102 34974 ft 391 kts 204°
2026-05-05 21:46 40.08254 -0.25145 34974 ft 391 kts 204°
2026-05-05 21:46 40.03042 -0.27185 34962 ft 391 kts 204°
2026-05-05 21:47 39.97824 -0.29222 34955 ft 391 kts 204°
2026-05-05 21:47 39.92608 -0.31255 34946 ft 391 kts 204°
2026-05-05 21:48 39.87399 -0.33281 34945 ft 390 kts 204°
2026-05-05 21:48 39.82196 -0.35303 34957 ft 390 kts 204°
2026-05-05 21:49 39.77029 -0.37308 34958 ft 391 kts 204°
2026-05-05 21:49 39.71856 -0.39313 34963 ft 391 kts 204°
2026-05-05 21:50 39.66640 -0.41332 34964 ft 392 kts 204°
2026-05-05 21:50 39.62264 -0.43024 34960 ft 392 kts 204°
2026-05-05 21:51 39.57034 -0.45042 34968 ft 392 kts 204°
2026-05-05 21:51 39.51814 -0.47053 34965 ft 391 kts 204°
2026-05-05 21:52 39.46485 -0.48540 34947 ft 393 kts 192°
2026-05-05 21:52 39.43772 -0.48726 34965 ft 389 kts 191°
2026-05-05 21:53 39.38393 -0.49071 34963 ft 385 kts 191°
2026-05-05 21:53 39.35713 -0.49252 34694 ft 386 kts 191°
2026-05-05 21:53 39.33093 -0.49430 34425 ft 379 kts 192°
2026-05-05 21:53 39.30469 -0.49612 34053 ft 376 kts 192°
2026-05-05 21:54 39.27874 -0.49796 33658 ft 372 kts 192°
2026-05-05 21:54 39.25301 -0.49981 33268 ft 369 kts 192°
2026-05-05 21:54 39.22751 -0.50164 32891 ft 365 kts 192°
2026-05-05 21:54 39.20227 -0.50346 32538 ft 361 kts 192°
2026-05-05 21:55 39.17726 -0.50527 32164 ft 358 kts 192°
2026-05-05 21:55 39.15245 -0.50706 31802 ft 356 kts 192°
2026-05-05 21:55 39.12785 -0.50884 31460 ft 353 kts 193°
2026-05-05 21:55 39.10341 -0.51060 31117 ft 350 kts 193°
2026-05-05 21:56 39.07919 -0.51235 30784 ft 348 kts 193°
2026-05-05 21:56 39.05508 -0.51409 30449 ft 346 kts 193°
2026-05-05 21:56 39.03112 -0.51584 30112 ft 344 kts 193°
2026-05-05 21:56 39.00730 -0.51755 29736 ft 342 kts 193°
2026-05-05 21:57 38.98363 -0.51925 29372 ft 339 kts 192°
2026-05-05 21:57 38.96023 -0.52091 29027 ft 335 kts 193°
2026-05-05 21:57 38.93706 -0.52258 28681 ft 332 kts 192°
2026-05-05 21:57 38.91401 -0.52423 28340 ft 330 kts 192°
2026-05-05 21:58 38.89112 -0.52587 27995 ft 329 kts 192°
2026-05-05 21:58 38.86813 -0.52756 27671 ft 335 kts 192°
2026-05-05 21:58 38.84446 -0.52933 27331 ft 345 kts 191°
2026-05-05 21:58 38.82037 -0.53110 26959 ft 347 kts 191°
2026-05-05 21:59 38.79634 -0.53279 26590 ft 344 kts 191°
2026-05-05 21:59 38.77249 -0.53445 26231 ft 342 kts 191°
2026-05-05 21:59 38.74881 -0.53611 25872 ft 340 kts 190°
2026-05-05 21:59 38.72525 -0.53776 25520 ft 338 kts 190°
2026-05-05 22:00 38.70186 -0.53944 25160 ft 336 kts 190°
2026-05-05 22:00 38.67861 -0.54108 24817 ft 334 kts 190°
2026-05-05 22:00 38.65545 -0.54272 24470 ft 332 kts 190°
2026-05-05 22:00 38.63244 -0.54435 24129 ft 331 kts 189°
2026-05-05 22:01 38.60948 -0.54599 23774 ft 330 kts 189°
2026-05-05 22:01 38.58660 -0.54761 23406 ft 329 kts 189°
2026-05-05 22:01 38.56378 -0.54923 22996 ft 328 kts 189°
2026-05-05 22:01 38.54108 -0.55083 22602 ft 326 kts 189°
2026-05-05 22:02 38.51850 -0.55243 22246 ft 324 kts 189°
2026-05-05 22:02 38.49614 -0.55400 21938 ft 319 kts 189°
2026-05-05 22:02 38.47408 -0.55555 21575 ft 317 kts 189°
2026-05-05 22:02 38.45220 -0.55710 21262 ft 314 kts 189°
2026-05-05 22:03 38.43072 -0.55863 20932 ft 313 kts 189°
2026-05-05 22:03 38.40903 -0.56017 20599 ft 311 kts 189°
2026-05-05 22:03 38.38751 -0.56169 20274 ft 309 kts 189°
2026-05-05 22:03 38.36609 -0.56320 19948 ft 307 kts 189°
2026-05-05 22:04 38.34477 -0.56471 19625 ft 306 kts 189°
2026-05-05 22:04 38.32359 -0.56620 19305 ft 304 kts 189°
2026-05-05 22:04 38.30249 -0.56769 18988 ft 303 kts 189°
2026-05-05 22:04 38.28148 -0.56917 18671 ft 302 kts 189°
2026-05-05 22:05 38.26051 -0.57027 18347 ft 303 kts 186°
2026-05-05 22:05 38.23942 -0.56963 18008 ft 303 kts 184°
2026-05-05 22:05 38.21836 -0.56841 17650 ft 302 kts 184°
2026-05-05 22:05 38.19741 -0.56720 17323 ft 301 kts 184°
2026-05-05 22:06 38.17652 -0.56612 16993 ft 299 kts 184°
2026-05-05 22:06 38.15576 -0.56514 16674 ft 298 kts 184°
2026-05-05 22:06 38.13513 -0.56421 16368 ft 296 kts 185°
2026-05-05 22:06 38.11463 -0.56332 16054 ft 294 kts 185°
2026-05-05 22:07 38.09424 -0.56258 15742 ft 292 kts 185°
2026-05-05 22:07 38.07464 -0.56195 15447 ft 291 kts 185°
2026-05-05 22:07 38.05444 -0.56131 15146 ft 290 kts 185°
2026-05-05 22:07 38.03431 -0.56067 14831 ft 289 kts 185°
2026-05-05 22:08 38.01427 -0.56003 14537 ft 288 kts 185°
2026-05-05 22:08 37.99428 -0.55938 14231 ft 287 kts 185°
2026-05-05 22:08 37.97435 -0.55873 13923 ft 286 kts 185°
2026-05-05 22:08 37.95442 -0.55808 13598 ft 286 kts 184°
2026-05-05 22:09 37.93452 -0.55743 13252 ft 286 kts 184°
2026-05-05 22:09 37.91488 -0.55840 12845 ft 280 kts 199°
2026-05-05 22:09 37.89781 -0.56878 12562 ft 269 kts 220°
2026-05-05 22:09 37.88584 -0.58621 12239 ft 262 kts 248°
2026-05-05 22:10 37.88406 -0.60855 11976 ft 260 kts 283°
2026-05-05 22:10 37.89370 -0.62741 11948 ft 261 kts 319°
2026-05-05 22:10 37.91091 -0.63607 11603 ft 283 kts 353°
2026-05-05 22:10 37.93101 -0.63257 11330 ft 298 kts
2026-05-05 22:11 37.95175 -0.63084 10963 ft 297 kts 353°
2026-05-05 22:11 37.97172 -0.63583 10643 ft 291 kts 336°
2026-05-05 22:11 37.98976 -0.64685 10350 ft 286 kts 326°
2026-05-05 22:11 38.00649 -0.66027 10082 ft 283 kts 323°
2026-05-05 22:12 38.02250 -0.67409 9930 ft 275 kts 322°
2026-05-05 22:12 38.03832 -0.68775 9603 ft 275 kts 323°
2026-05-05 22:12 38.05394 -0.70160 9316 ft 273 kts 321°
2026-05-05 22:12 38.06894 -0.71629 9018 ft 271 kts 318°
2026-05-05 22:13 38.08058 -0.73459 8677 ft 267 kts 289°
2026-05-05 22:13 38.08196 -0.75745 8422 ft 262 kts 255°
2026-05-05 22:13 38.07302 -0.77723 8124 ft 263 kts 228°
2026-05-05 22:13 38.06004 -0.79329 7779 ft 265 kts 225°
2026-05-05 22:14 38.04690 -0.80951 7357 ft 263 kts 226°
2026-05-05 22:14 38.03394 -0.82601 6841 ft 265 kts 227°
2026-05-05 22:14 38.02097 -0.84278 6351 ft 267 kts 227°
2026-05-05 22:14 38.00803 -0.85959 5894 ft 266 kts 227°
2026-05-05 22:15 37.99517 -0.87630 5474 ft 264 kts 227°
2026-05-05 22:15 37.98241 -0.89285 5073 ft 261 kts 228°
2026-05-05 22:15 37.96986 -0.90912 4756 ft 255 kts 228°
2026-05-05 22:15 37.95755 -0.92507 4434 ft 250 kts 228°
2026-05-05 22:16 37.94551 -0.94069 4132 ft 245 kts 228°
2026-05-05 22:16 37.93370 -0.95599 3834 ft 240 kts 228°
2026-05-05 22:16 37.92215 -0.97094 3556 ft 235 kts 227°
2026-05-05 22:16 37.91098 -0.98540 3312 ft 224 kts 228°
2026-05-05 22:17 37.90036 -0.99914 3021 ft 211 kts 228°
2026-05-05 22:17 37.89038 -1.01206 2774 ft 200 kts 228°
2026-05-05 22:17 37.88090 -1.02433 2548 ft 192 kts 228°
2026-05-05 22:17 37.87183 -1.03605 2307 ft 181 kts 228°
2026-05-05 22:18 37.86337 -1.04697 2117 ft 165 kts 228°
2026-05-05 22:18 37.85560 -1.05700 1874 ft 155 kts 228°
2026-05-05 22:18 37.84806 -1.06675 1670 ft 155 kts 227°
2026-05-05 22:18 37.84047 -1.07654 1463 ft 156 kts 227°
2026-05-05 22:19 37.83290 -1.08631 1264 ft 156 kts 227°
2026-05-05 22:19 37.82531 -1.09611 1038 ft 156 kts 227°
2026-05-05 22:19 37.81778 -1.10585 849 ft 154 kts 227°
2026-05-05 22:19 37.81034 -1.11540 657 ft 148 kts 226°
2026-05-05 22:20 37.80376 -1.12393 648 ft 121 kts 225°
2026-05-05 22:20 37.79979 -1.12913 645 ft 45 kts 232°
2026-05-05 22:20 37.79894 -1.13178 649 ft 20 kts 256°
2026-05-05 22:20 37.79934 -1.13250 649 ft 12 kts 359°
2026-05-05 22:21 37.80008 -1.13176 647 ft 16 kts 44°
2026-05-05 22:21 37.80077 -1.13092 647 ft 8 kts 37°
2026-05-05 22:21 37.80136 -1.13107 647 ft 11 kts 323°
2026-05-05 22:21 37.80204 -1.13160 646 ft 13 kts
2026-05-05 22:22 37.80255 -1.13109 646 ft 4 kts 45°
2026-05-05 22:22 37.80277 -1.13101 646 ft 4 kts 331°
2026-05-05 22:22 37.80305 -1.13132 647 ft 7 kts 316°
2026-05-05 22:22 37.80318 -1.13148 646 ft 0 kts 315°
2026-05-05 22:23 37.80321 -1.13153 646 ft 1 kts 316°
2026-05-05 22:23 37.80323 -1.13155 646 ft 0 kts 315°